Weather History for KVPC - August, 2013

Change the Weather History Date:

Sunday, August 4, 2013

  Actual Average Record
Temperature  
Mean Temperature 78 °F 79 °F  
Max Temperature 89 °F 90 °F 100 °F (2006)
Min Temperature 67 °F 68 °F 63 °F (2014)
Cooling Degree Days 13 14  
Month to date cooling degree days 48 56  
Year to date cooling degree days 871 912  
Since 1 June cooling degree days 746 763  
Growing Degree Days 29 (Base 50)    
Moisture  
Dew Point 70 °F    
Average Humidity 73    
Maximum Humidity 93    
Minimum Humidity 52    
Precipitation  
Precipitation 0.00 in 0.17 in 1.48 in (2011)
Month to date precipitation 0.01 0.64  
Year to date precipitation 25.08 31.30  
Sea Level Pressure  
Sea Level Pressure 30.03 in    
Wind  
Wind Speed 3 mph (North)    
Max Wind Speed 14 mph    
Max Gust Speed 17 mph    
Visibility 8 miles    
Events      
T = Trace of Precipitation, MM = Missing Value Source: NWS Daily Summary

Daily Weather History Graph

Daily Weather History Graph

Search for Another Location

Airport or City:

Trip Planner

Search our weather history database for the weather conditions in past years. The results will help you decide how hot, cold, wet, or windy it might be!

Date:

Astronomy

Aug. 04, 2013 Rise Set
Actual Time 6:52 AM EDT 8:37 PM EDT
Civil Twilight 6:25 AM EDT 9:04 PM EDT
Nautical Twilight 5:52 AM EDT 9:37 PM EDT
Astronomical Twilight 5:18 AM EDT 10:11 PM EDT
Moon 4:54 AM EDT (8/4) 7:00 PM EDT (8/4)
Length of Visible Light 14h 38m
Length of Day
13h 44m
Waning Crescent, 5% of the Moon is Illuminated
Aug 4
Waning Crescent
Aug 6
New
Aug 14
First Quarter
Aug 20
Full
Aug 28
Last Quarter

Hourly Weather History & Observations

Time (EDT) Temp. Heat Index Dew Point Humidity Pressure Visibility Wind Dir Wind Speed Gust Speed Precip Events Conditions
12:53 AM 75.0 °F - 72.0 °F 90% 30.03 in 5.0 mi Calm Calm - N/A   Clear
1:53 AM 73.9 °F - 71.1 °F 91% 30.03 in 5.0 mi Calm Calm - N/A   Partly Cloudy
2:19 AM 73.4 °F - 71.6 °F 94% 30.06 in 4.0 mi Calm Calm - N/A   Partly Cloudy
2:53 AM 73.0 °F - 71.1 °F 93% 30.01 in 4.0 mi Calm Calm - N/A   Partly Cloudy
3:53 AM 73.0 °F - 71.1 °F 93% 30.01 in 5.0 mi Calm Calm - N/A   Scattered Clouds
4:01 AM 73.4 °F - 71.6 °F 94% 30.04 in 5.0 mi Calm Calm - N/A   Mostly Cloudy
4:25 AM 73.4 °F - 71.6 °F 94% 30.05 in 6.0 mi Calm Calm - N/A   Mostly Cloudy
4:53 AM 73.0 °F - 71.1 °F 93% 30.01 in 6.0 mi Calm Calm - N/A   Scattered Clouds
5:53 AM 73.0 °F - 71.1 °F 93% 30.01 in 6.0 mi Calm Calm - N/A   Clear
6:53 AM 72.0 °F - 70.0 °F 93% 30.01 in 5.0 mi Calm Calm - N/A   Clear
7:50 AM 73.4 °F - 71.6 °F 94% 30.07 in 5.0 mi Calm Calm - N/A   Overcast
7:53 AM 73.0 °F - 71.1 °F 93% 30.03 in 5.0 mi Calm Calm - N/A   Overcast
8:09 AM 73.4 °F - 71.6 °F 94% 30.08 in 5.0 mi Calm Calm - N/A   Overcast
8:53 AM 75.0 °F - 71.1 °F 87% 30.04 in 8.0 mi Calm Calm - N/A   Mostly Cloudy
9:44 AM 77.0 °F - 69.8 °F 78% 30.08 in 10.0 mi North 6.9 mph - N/A   Mostly Cloudy
9:53 AM 77.0 °F - 69.1 °F 76% 30.04 in 10.0 mi Variable 6.9 mph - N/A   Mostly Cloudy
10:06 AM 78.8 °F - 69.8 °F 74% 30.07 in 10.0 mi NNW 5.8 mph - N/A   Scattered Clouds
10:53 AM 80.1 °F 82.9 °F 69.1 °F 69% 30.03 in 10.0 mi NNW 5.8 mph - N/A   Scattered Clouds
11:00 AM 78.8 °F - 69.8 °F 74% 30.07 in 10.0 mi Variable 5.8 mph - N/A   Mostly Cloudy
11:53 AM 82.0 °F 85.5 °F 69.1 °F 65% 30.03 in 10.0 mi NNW 6.9 mph - N/A   Mostly Cloudy
12:36 PM 84.2 °F 88.4 °F 69.8 °F 62% 30.07 in 10.0 mi North 5.8 mph - N/A   Mostly Cloudy
12:53 PM 84.0 °F 87.8 °F 69.1 °F 61% 30.03 in 10.0 mi Variable 5.8 mph - N/A   Mostly Cloudy
1:53 PM 84.9 °F 89.4 °F 70.0 °F 61% 30.01 in 10.0 mi North 5.8 mph - N/A   Scattered Clouds
2:53 PM 86.0 °F 90.1 °F 69.1 °F 57% 30.00 in 10.0 mi Variable 6.9 mph - N/A   Scattered Clouds
3:53 PM 89.1 °F 93.7 °F 69.1 °F 52% 29.98 in 10.0 mi North 5.8 mph - N/A   Clear
4:53 PM 86.0 °F 90.1 °F 69.1 °F 57% 29.97 in 10.0 mi Variable 3.5 mph - N/A   Clear
5:53 PM 88.0 °F 92.1 °F 69.1 °F 53% 29.96 in 10.0 mi North 10.4 mph - N/A   Scattered Clouds
6:53 PM 84.0 °F 86.5 °F 66.9 °F 56% 29.98 in 10.0 mi North 11.5 mph - N/A   Clear
7:53 PM 81.0 °F 83.3 °F 66.9 °F 62% 29.98 in 10.0 mi Variable 4.6 mph - N/A   Clear
8:53 PM 75.0 °F - 68.0 °F 79% 30.00 in 10.0 mi Calm Calm - N/A   Clear
9:53 PM 70.0 °F - 66.9 °F 90% 30.01 in 9.0 mi Calm Calm - N/A   Clear
10:53 PM 69.1 °F - 66.9 °F 93% 30.02 in 8.0 mi Calm Calm - N/A   Clear
11:53 PM 69.1 °F - 66.0 °F 90% 30.03 in 7.0 mi Calm Calm - N/A   Clear